• In Deutschland
  • Länderverzeichnis
  • Für 7 Tage
  • Wassertemperatur
  • Satellitenkarten
  • Wetterkarte
  • Widgets
  • user-avatar
    Anmelden

    Stündliche Wetter Wertheim

    Heute, 17 Juli, Dienstag

    Zeit Temperatur Niederschläge Wind Luftdruck Luftfeuchtigkeit
    00:00 +17°C° 0,2 mm 0 m/S 737 mmHg 80%
    01:00 +19°C° 0 mm 1 m/S 737 mmHg 83%
    02:00 +19°C° 0,3 mm 1 m/S 737 mmHg 84%
    03:00 +18°C° 0,3 mm 1 m/S 737 mmHg 84%
    04:00 +16°C° 0,3 mm 0 m/S 737 mmHg 85%
    05:00 +17°C° 0 mm 0 m/S 737 mmHg 83%
    06:00 +18°C° 0 mm 0 m/S 737 mmHg 80%
    07:00 +21°C° 0 mm 1 m/S 738 mmHg 76%
    08:00 +23°C° 0,2 mm 1 m/S 738 mmHg 70%
    09:00 +25°C° 0,2 mm 1 m/S 738 mmHg 64%
    10:00 +26°C° 0,2 mm 2 m/S 738 mmHg 57%
    11:00 +28°C° 0,1 mm 2 m/S 738 mmHg 51%
    12:00 +29°C° 0,1 mm 2 m/S 738 mmHg 44%
    13:00 +30°C° 0,1 mm 2 m/S 738 mmHg 38%
    14:00 +30°C° 0 mm 3 m/S 738 mmHg 38%
    15:00 +30°C° 0 mm 3 m/S 738 mmHg 38%
    16:00 +30°C° 0 mm 3 m/S 738 mmHg 39%
    17:00 +29°C° 0 mm 2 m/S 738 mmHg 44%
    18:00 +27°C° 0 mm 2 m/S 738 mmHg 50%
    19:00 +26°C° 0 mm 1 m/S 738 mmHg 55%
    20:00 +25°C° 0 mm 1 m/S 738 mmHg 57%
    21:00 +23°C° 0 mm 1 m/S 738 mmHg 59%
    22:00 +22°C° 0 mm 1 m/S 739 mmHg 61%
    23:00 +21°C° 0 mm 1 m/S 739 mmHg 65%

    Morgen, 18 Juli, Mittwoch

    Zeit Temperatur Niederschläge Wind Luftdruck Luftfeuchtigkeit
    00:00 +21°C° 0 mm 1 m/S 739 mmHg 68%
    01:00 +20°C° 0 mm 1 m/S 739 mmHg 72%
    02:00 +19°C° 0 mm 1 m/S 739 mmHg 75%
    03:00 +19°C° 0 mm 1 m/S 739 mmHg 77%
    04:00 +18°C° 0 mm 1 m/S 739 mmHg 80%
    05:00 +19°C° 0 mm 1 m/S 739 mmHg 79%
    06:00 +20°C° 0 mm 1 m/S 739 mmHg 78%
    07:00 +20°C° 0 mm 2 m/S 740 mmHg 76%
    08:00 +21°C° 0 mm 2 m/S 740 mmHg 71%
    09:00 +24°C° 0 mm 2 m/S 740 mmHg 65%
    10:00 +25°C° 0 mm 2 m/S 740 mmHg 60%
    11:00 +26°C° 0,1 mm 2 m/S 740 mmHg 56%
    12:00 +27°C° 0,1 mm 3 m/S 740 mmHg 53%
    13:00 +28°C° 0,1 mm 3 m/S 740 mmHg 49%
    14:00 +28°C° 0 mm 3 m/S 740 mmHg 48%
    15:00 +28°C° 0 mm 2 m/S 740 mmHg 48%
    16:00 +28°C° 0 mm 2 m/S 739 mmHg 47%
    17:00 +27°C° 0 mm 2 m/S 739 mmHg 52%
    18:00 +26°C° 0 mm 2 m/S 739 mmHg 56%
    19:00 +25°C° 0 mm 2 m/S 739 mmHg 60%
    20:00 +23°C° 0 mm 2 m/S 740 mmHg 64%
    21:00 +20°C° 0 mm 2 m/S 740 mmHg 67%
    22:00 +19°C° 0 mm 2 m/S 740 mmHg 71%
    23:00 +18°C° 0 mm 2 m/S 740 mmHg 73%

    übermorgen, 19 Juli, Donnerstag

    Zeit Temperatur Niederschläge Wind Luftdruck Luftfeuchtigkeit
    00:00 +17°C° 0 mm 2 m/S 740 mmHg 75%
    01:00 +17°C° 0 mm 2 m/S 740 mmHg 77%
    02:00 +16°C° 0 mm 1 m/S 740 mmHg 79%
    03:00 +16°C° 0 mm 1 m/S 740 mmHg 81%
    04:00 +15°C° 0 mm 1 m/S 740 mmHg 84%
    05:00 +16°C° 0 mm 1 m/S 741 mmHg 80%
    06:00 +18°C° 0 mm 1 m/S 741 mmHg 76%
    07:00 +20°C° 0 mm 1 m/S 741 mmHg 73%
    08:00 +21°C° 0 mm 1 m/S 741 mmHg 66%
    09:00 +23°C° 0 mm 1 m/S 741 mmHg 60%
    10:00 +25°C° 0 mm 2 m/S 741 mmHg 54%
    11:00 +26°C° 0 mm 2 m/S 741 mmHg 50%
    12:00 +27°C° 0 mm 2 m/S 741 mmHg 47%
    13:00 +28°C° 0 mm 2 m/S 741 mmHg 43%
    14:00 +28°C° 0 mm 2 m/S 741 mmHg 43%
    15:00 +28°C° 0 mm 2 m/S 740 mmHg 42%
    16:00 +28°C° 0 mm 2 m/S 740 mmHg 41%
    17:00 +27°C° 0 mm 2 m/S 740 mmHg 47%
    18:00 +26°C° 0 mm 2 m/S 740 mmHg 52%
    19:00 +25°C° 0 mm 2 m/S 740 mmHg 58%
    20:00 +23°C° 0 mm 2 m/S 740 mmHg 61%
    21:00 +21°C° 0 mm 2 m/S 740 mmHg 65%
    22:00 +19°C° 0 mm 2 m/S 740 mmHg 68%
    23:00 +18°C° 0 mm 2 m/S 740 mmHg 70%

    20 Juli, Freitag

    Zeit Temperatur Niederschläge Wind Luftdruck Luftfeuchtigkeit
    00:00 +17°C° 0 mm 2 m/S 740 mmHg 73%
    01:00 +17°C° 0 mm 2 m/S 740 mmHg 75%
    02:00 +16°C° 0 mm 2 m/S 740 mmHg 76%
    03:00 +16°C° 0 mm 1 m/S 740 mmHg 77%
    04:00 +15°C° 0 mm 1 m/S 740 mmHg 79%
    05:00 +16°C° 0 mm 1 m/S 739 mmHg 76%
    06:00 +17°C° 0 mm 2 m/S 739 mmHg 73%
    07:00 +18°C° 0 mm 2 m/S 739 mmHg 70%
    08:00 +20°C° 0 mm 2 m/S 739 mmHg 64%
    09:00 +23°C° 0 mm 2 m/S 739 mmHg 57%
    10:00 +25°C° 0 mm 2 m/S 739 mmHg 51%
    11:00 +27°C° 0 mm 2 m/S 739 mmHg 48%
    12:00 +28°C° 0 mm 2 m/S 739 mmHg 44%
    13:00 +29°C° 0 mm 2 m/S 739 mmHg 41%
    14:00 +29°C° 0 mm 1 m/S 738 mmHg 41%
    15:00 +29°C° 0 mm 1 m/S 738 mmHg 40%
    16:00 +29°C° 0 mm 1 m/S 737 mmHg 40%
    17:00 +28°C° 0 mm 1 m/S 737 mmHg 46%
    18:00 +27°C° 0 mm 1 m/S 737 mmHg 52%
    19:00 +26°C° 0 mm 1 m/S 737 mmHg 57%
    20:00 +24°C° 0 mm 1 m/S 736 mmHg 59%
    21:00 +23°C° 0 mm 2 m/S 736 mmHg 61%
    22:00 +20°C° 0 mm 2 m/S 736 mmHg 63%
    23:00 +20°C° 0 mm 2 m/S 736 mmHg 65%

    21 Juli, Samstag

    Zeit Temperatur Niederschläge Wind Luftdruck Luftfeuchtigkeit
    00:00 +19°C° 0 mm 2 m/S 736 mmHg 67%
    01:00 +18°C° 0 mm 2 m/S 736 mmHg 69%
    02:00 +18°C° 0 mm 2 m/S 736 mmHg 70%
    03:00 +18°C° 0 mm 2 m/S 735 mmHg 71%
    04:00 +19°C° 0 mm 1 m/S 735 mmHg 72%
    05:00 +19°C° 0,1 mm 1 m/S 736 mmHg 72%
    06:00 +20°C° 0,1 mm 1 m/S 736 mmHg 73%
    07:00 +20°C° 0,1 mm 1 m/S 736 mmHg 73%
    08:00 +21°C° 0,1 mm 1 m/S 736 mmHg 72%
    09:00 +22°C° 0,1 mm 1 m/S 736 mmHg 71%
    10:00 +23°C° 0,1 mm 1 m/S 736 mmHg 70%
    11:00 +22°C° 0,3 mm 1 m/S 736 mmHg 73%
    12:00 +21°C° 0,3 mm 2 m/S 736 mmHg 76%
    13:00 +21°C° 0,3 mm 2 m/S 736 mmHg 78%
    14:00 +21°C° 0,2 mm 2 m/S 736 mmHg 78%
    15:00 +21°C° 0,2 mm 2 m/S 736 mmHg 78%
    16:00 +21°C° 0,2 mm 2 m/S 736 mmHg 77%
    17:00 +21°C° 0,2 mm 2 m/S 736 mmHg 78%
    18:00 +21°C° 0,2 mm 2 m/S 736 mmHg 79%
    19:00 +21°C° 0,2 mm 2 m/S 736 mmHg 79%
    20:00 +21°C° 0,1 mm 1 m/S 736 mmHg 81%
    21:00 +20°C° 0,1 mm 1 m/S 736 mmHg 83%
    22:00 +19°C° 0,1 mm 1 m/S 737 mmHg 85%
    23:00 +19°C° 0 mm 1 m/S 737 mmHg 85%

    22 Juli, Sonntag

    Zeit Temperatur Niederschläge Wind Luftdruck Luftfeuchtigkeit
    00:00 +18°C° 0 mm 1 m/S 737 mmHg 85%
    01:00 +18°C° 0 mm 1 m/S 737 mmHg 85%
    02:00 +18°C° 0 mm 1 m/S 737 mmHg 85%
    03:00 +16°C° 0 mm 1 m/S 737 mmHg 86%
    04:00 +16°C° 0 mm 1 m/S 738 mmHg 86%
    05:00 +18°C° 0 mm 1 m/S 738 mmHg 83%
    06:00 +19°C° 0 mm 1 m/S 738 mmHg 81%
    07:00 +20°C° 0 mm 1 m/S 739 mmHg 79%
    08:00 +21°C° 0 mm 1 m/S 739 mmHg 70%
    09:00 +23°C° 0 mm 2 m/S 739 mmHg 61%
    10:00 +25°C° 0 mm 2 m/S 739 mmHg 52%
    11:00 +26°C° 0 mm 2 m/S 739 mmHg 49%
    12:00 +27°C° 0 mm 2 m/S 739 mmHg 46%
    13:00 +27°C° 0 mm 2 m/S 739 mmHg 42%
    14:00 +27°C° 0 mm 2 m/S 739 mmHg 43%
    15:00 +27°C° 0 mm 2 m/S 739 mmHg 44%
    16:00 +27°C° 0 mm 2 m/S 739 mmHg 45%
    17:00 +26°C° 0 mm 2 m/S 739 mmHg 49%
    18:00 +25°C° 0 mm 1 m/S 739 mmHg 54%
    19:00 +25°C° 0 mm 1 m/S 739 mmHg 58%
    20:00 +23°C° 0 mm 1 m/S 740 mmHg 62%
    21:00 +21°C° 0 mm 1 m/S 740 mmHg 65%
    22:00 +18°C° 0 mm 0 m/S 740 mmHg 69%
    23:00 +17°C° 0 mm 0 m/S 740 mmHg 71%
    Mehr zeigen